Deer Park, WA
on Saturday, December 29, 2012

Saturday
Previous Day Next Day
Daily Summary
 ActualAverageRecord
Temperature
Mean Temperature °F 25°F  
Max Temperature 27°F 31°F 49°F (2011)
Min Temperature 8°F 18°F -2°F (2003)
Degree Days
Heating Degree Days 47 40  
Month to date heating degree days 963 1143  
Since 1 July heating degree days 2700 3146  
Cooling Degree Days 0 0  
Month to date cooling degree days 0 0  
Year to date cooling degree days 232 187  
Moisture
Dew Point 20°F   
Average Humidity 94    
Maximum Humidity 100    
Minimum Humidity 88    
Precipitation
Precipitation 0.03 in 0.10 in 0.67 in (2008)
Month to date precipitation 2.49 2.70  
Year to date precipitation 26.60 22.09  
Wind
Wind Speed 1 mph   
Max Wind Speed 9 mph   
Max Gust Speed 13 mph   
Visibility 4 miles   
Events Fog , Snow   

Key: T is trace of precipitation, MM is missing value
Source: NWS Daily Summary
Time(PST)TemperatureDew PointHumidity Pressure Visibility Wind DirectionWind SpeedGust SpeedPrecipitationEvents Conditions
12:11 AM 26.6°F 24.8°F 93% 30.17 in 10.0 miles Calm Calm - N/A   Mostly Cloudy
12:53 AM 24.1°F 23.0°F 96% 30.24 in 10.0 miles Calm Calm - N/A   Scattered Clouds
1:21 AM 24.8°F 23.0°F 93% 30.16 in 10.0 miles Calm Calm - N/A   Mostly Cloudy
1:53 AM 21.0°F 21.0°F 100% 30.25 in 10.0 miles Calm Calm - N/A   Mostly Cloudy
2:04 AM 21.2°F 19.4°F 93% 30.16 in 3.0 miles Calm Calm - N/A   Scattered Clouds
2:10 AM 21.2°F 21.2°F 100% 30.16 in 1.5 miles Calm Calm - N/A   Partly Cloudy
2:18 AM 21.2°F 19.4°F 93% 30.17 in 0.8 miles Calm Calm - N/A   Mist
2:26 AM 21.2°F 21.2°F 100% 30.17 in 0.8 miles Calm Calm - N/A   Scattered Clouds
2:50 AM 19.4°F 19.4°F 100% 30.16 in 0.8 miles Calm Calm - N/A   Mostly Cloudy
2:53 AM 19.9°F 19.0°F 96% 30.24 in 0.8 miles Calm Calm - N/A   Mostly Cloudy
3:20 AM 21.2°F 21.2°F 100% 30.16 in 1.5 miles NNW 3.5 mph - N/A   Mostly Cloudy
3:32 AM 21.2°F 19.4°F 93% 30.16 in 10.0 miles Calm Calm - N/A   Scattered Clouds
3:56 AM 19.4°F 17.6°F 93% 30.15 in 1.0 miles Calm Calm - N/A   Mist
4:03 AM 19.4°F 17.6°F 93% 30.15 in 0.2 miles Calm Calm - N/A Fog Light Freezing Fog
4:26 AM 19.4°F 17.6°F 93% 30.15 in 0.5 miles Calm Calm - N/A Fog Light Freezing Fog
4:44 AM 21.2°F 19.4°F 93% 30.15 in 1.2 miles Calm Calm - N/A   Overcast
4:53 AM 19.9°F 19.9°F 100% 30.23 in 1.0 miles Calm Calm - N/A   Overcast
5:13 AM 21.2°F 19.4°F 93% 30.15 in 3.0 miles Calm Calm - N/A   Overcast
5:53 AM 21.9°F 21.0°F 96% 30.23 in 9.0 miles Calm Calm - N/A   Overcast
6:53 AM 23.0°F 21.9°F 96% 30.23 in 10.0 miles Calm Calm - N/A   Overcast
7:10 AM 23.0°F 21.2°F 93% 30.15 in 10.0 miles SSE 4.6 mph - N/A   Overcast
7:25 AM 23.0°F 21.2°F 93% 30.14 in 8.0 miles SSE 3.5 mph - N/A   Overcast
7:48 AM 23.0°F 21.2°F 93% 30.15 in 1.8 miles Calm Calm - N/A   Overcast
7:53 AM 23.0°F 21.9°F 96% 30.23 in 0.5 miles Calm Calm - N/A Fog Light Freezing Fog
8:53 AM 24.1°F 24.1°F 100% 30.24 in 0.2 miles North - - N/A Fog Light Freezing Fog
9:19 AM 24.8°F 23.0°F 93% 30.16 in 3.0 miles North - - N/A   Overcast
9:33 AM 24.8°F 24.8°F 100% 30.16 in 1.8 miles North - - N/A   Overcast
9:42 AM 24.8°F 24.8°F 100% 30.16 in 0.2 miles North - - N/A Fog Light Freezing Fog
9:53 AM 25.0°F 24.1°F 96% 30.24 in 1.0 miles North - - N/A   Overcast
10:02 AM 24.8°F 24.8°F 100% 30.16 in 3.0 miles SSW 8.1 mph - N/A   Overcast
10:53 AM 24.1°F 21.9°F 91% 30.23 in 10.0 miles South 8.1 mph - N/A   Overcast
11:53 AM 23.0°F 21.9°F 96% 30.22 in 9.0 miles SSW 6.9 mph - N/A   Overcast
12:53 PM 24.1°F 21.9°F 91% 30.21 in 10.0 miles SSW 6.9 mph - N/A   Overcast
1:09 PM 24.8°F 21.2°F 86% 30.12 in 8.0 miles South 5.8 mph - N/A   Overcast
1:21 PM 24.8°F 21.2°F 86% 30.11 in 1.8 miles North - - 0.00 in Snow Light Snow
1:34 PM 24.8°F 21.2°F 86% 30.11 in 1.8 miles North - - 0.00 in Snow Light Snow
1:53 PM 24.1°F 21.9°F 91% 30.20 in 2.0 miles South 3.5 mph - 0.00 in Snow Light Snow
2:07 PM 24.8°F 21.2°F 86% 30.11 in 2.0 miles South 3.5 mph - 0.00 in Snow Light Snow
2:20 PM 24.8°F 21.2°F 86% 30.11 in 1.8 miles South 4.6 mph - 0.00 in Snow Light Snow
2:34 PM 24.8°F 21.2°F 86% 30.11 in 2.0 miles North - - 0.00 in Snow Light Snow
3:53 PM 24.1°F 23.0°F 96% 30.20 in 1.2 miles North - - 0.00 in Snow Light Snow
4:02 PM 24.8°F 23.0°F 93% 30.11 in 1.2 miles North - - 0.00 in Snow Light Snow
4:15 PM 24.8°F 23.0°F 93% 30.11 in 2.5 miles North - - 0.01 in Snow Light Snow
4:30 PM 24.8°F 23.0°F 93% 30.11 in 1.8 miles Calm Calm - 0.01 in Snow Light Snow
4:37 PM 24.8°F 23.0°F 93% 30.11 in 2.0 miles Calm Calm - 0.01 in Snow Light Snow
4:53 PM 24.1°F 21.9°F 91% 30.20 in 2.0 miles Calm Calm - 0.01 in Snow Light Snow
5:04 PM 24.8°F 21.2°F 86% 30.11 in 2.5 miles Calm Calm - 0.00 in Snow Light Snow
5:11 PM 24.8°F 21.2°F 86% 30.11 in 4.0 miles Calm Calm - 0.00 in Snow Light Snow
5:53 PM 21.9°F 21.0°F 96% 30.20 in 5.0 miles Calm Calm - 0.00 in Snow Light Snow
6:25 PM 19.4°F 17.6°F 93% 30.11 in 1.2 miles Calm Calm - 0.01 in   Overcast
6:33 PM 17.6°F 15.8°F 93% 30.11 in 0.5 miles Calm Calm - 0.01 in Fog Light Freezing Fog
6:53 PM 17.1°F 16.0°F 96% 30.22 in 0.2 miles Calm Calm - 0.01 in Fog Light Freezing Fog
7:06 PM 15.8°F 14.0°F 93% 30.12 in 0.5 miles Calm Calm - N/A Fog Light Freezing Fog
7:23 PM 14.0°F 12.2°F 93% 30.12 in 1.2 miles Calm Calm - N/A   Overcast
7:33 PM 12.2°F 12.2°F 100% 30.12 in 3.0 miles Calm Calm - N/A   Overcast
7:53 PM 12.0°F 10.9°F 95% 30.23 in 10.0 miles Calm Calm - N/A   Overcast
8:21 PM 12.2°F 12.2°F 100% 30.12 in 1.5 miles Calm Calm - N/A   Scattered Clouds
8:29 PM 12.2°F 10.4°F 92% 30.12 in 0.8 miles Calm Calm - N/A   Mostly Cloudy
8:40 PM 10.4°F 8.6°F 92% 30.13 in 0.5 miles Calm Calm - N/A Fog Light Freezing Fog
8:53 PM 12.0°F 10.9°F 95% 30.23 in 1.2 miles Calm Calm - N/A   Mostly Cloudy
8:55 PM 12.2°F 10.4°F 92% 30.13 in 4.0 miles Calm Calm - N/A   Mostly Cloudy
10:53 PM 17.1°F 15.1°F 92% 30.25 in 10.0 miles Calm Calm - N/A   Overcast
11:53 PM 18.0°F 16.0°F 92% 30.25 in 10.0 miles Calm Calm - N/A   Overcast
Moon Phase
Dec. 29 Jan. 04 Jan. 11 Jan. 18 Jan. 26
Sunrise:07:39 AM (PST) Moon Rise:05:50 PM (PST)12/29
Sunset:04:05 PM (PST) Moon Set:08:08 AM (PST)12/29

Copyright © 2014 The Weather Underground, Inc.